Location: Unspecified
(50.7693°N, 0.0000°E)
Time: 18:14:03
(UTC+00:00)

SR - Pass Details

Date: 29 June 2019
Orbit: 578 x 878 km, 66.7° (Epoch: 24 August)

Event Time Altitude Azimuth Distance (km) Brightness Sun altitude
Rises 04:10:12 0° 262° (W) 2,802 ? 1.7°
Reaches altitude 10° 04:12:50 10° 279° (W) 1,924 ? 2.1°
Maximum altitude 04:16:09 21° 330° (NNW) 1,380 ? 2.5°
Drops below altitude 10° 04:19:35 10° 20° (NNE) 2,017 ? 2.9°
Sets 04:22:27 0° 36° (NE) 2,980 ? 3.3°
